Weather History for KRSL - June, 2013

Change the Weather History Date:

Wednesday, June 12, 2013

  Actual Average (KHLC) Record (KHLC)
Temperature  
Mean Temperature 86 °F 72 °F  
Max Temperature 99 °F 85 °F 105 °F (1953)
Min Temperature 72 °F 59 °F 41 °F (1910)
Cooling Degree Days 20    
Growing Degree Days 36 (Base 50)    
Moisture  
Dew Point 59 °F    
Average Humidity 44    
Maximum Humidity 69    
Minimum Humidity 22    
Precipitation  
Precipitation 0.00 in 0.09 in - ()
Month to date precipitation 1.22  
Year to date precipitation 9.72  
Sea Level Pressure  
Sea Level Pressure 29.79 in    
Wind  
Wind Speed 19 mph (NNW)    
Max Wind Speed 24 mph    
Max Gust Speed 34 mph    
Visibility 10 miles    
Events      
T = Trace of Precipitation, MM = Missing Value Source: NWS Daily Summary

Daily Weather History Graph

Daily Weather History Graph

Search for Another Location

Airport or City:

Trip Planner

Search our weather history database for the weather conditions in past years. The results will help you decide how hot, cold, wet, or windy it might be!

Date:

Astronomy

Jun. 12, 2013 Rise Set
Actual Time 6:09 AM CDT 9:01 PM CDT
Civil Twilight 5:37 AM CDT 9:33 PM CDT
Nautical Twilight 4:57 AM CDT 10:13 PM CDT
Astronomical Twilight 4:11 AM CDT 10:59 PM CDT
Moon 9:48 AM CDT (6/12) 11:39 PM CDT (6/12)
Length of Visible Light 15h 55m
Length of Day
14h 51m
Waxing Crescent, 14% of the Moon is Illuminated
Jun 12
Waxing Crescent
Jun 16
First Quarter
Jun 23
Full
Jun 29
Last Quarter
Jul 8
New

Hourly Weather History & Observations

Time (CDT) Temp. Heat Index Dew Point Humidity Pressure Visibility Wind Dir Wind Speed Gust Speed Precip Events Conditions
12:53 AM 81.0 °F 80.8 °F 55.9 °F 42% 29.62 in 10.0 mi South 21.9 mph 32.2 mph N/A   Clear
1:53 AM 81.0 °F 80.8 °F 55.9 °F 42% 29.62 in 10.0 mi South 24.2 mph 34.5 mph N/A   Clear
2:53 AM 80.1 °F 80.2 °F 55.9 °F 43% 29.62 in 10.0 mi South 23.0 mph 29.9 mph N/A   Clear
3:53 AM 78.1 °F - 55.9 °F 46% 29.60 in 10.0 mi South 23.0 mph 31.1 mph N/A   Clear
4:53 AM 77.0 °F - 55.9 °F 48% 29.64 in 10.0 mi SW 13.8 mph - N/A   Clear
5:53 AM 78.1 °F - 55.0 °F 45% 29.67 in 10.0 mi North - - N/A   Clear
6:53 AM 73.0 °F - 57.9 °F 59% 29.72 in 10.0 mi West 12.7 mph - N/A   Clear
7:53 AM 75.9 °F - 64.9 °F 69% 29.72 in 10.0 mi WNW 15.0 mph - N/A   Clear
8:53 AM 80.1 °F 81.9 °F 64.9 °F 60% 29.76 in 10.0 mi NNW 23.0 mph 31.1 mph N/A   Clear
9:53 AM 84.0 °F 86.3 °F 66.0 °F 55% 29.79 in 10.0 mi NW 21.9 mph - N/A   Clear
10:53 AM 88.0 °F 90.3 °F 66.0 °F 48% 29.80 in 10.0 mi NW 21.9 mph 26.5 mph N/A   Clear
11:53 AM 91.9 °F 93.3 °F 64.0 °F 39% 29.81 in 10.0 mi NNW 19.6 mph 32.2 mph N/A   Clear
12:53 PM 93.9 °F 97.0 °F 66.0 °F 40% 29.81 in 10.0 mi NNW 17.3 mph 23.0 mph N/A   Clear
1:53 PM 95.0 °F 96.0 °F 63.0 °F 34% 29.82 in 10.0 mi North 20.7 mph 29.9 mph N/A   Clear
2:53 PM 96.1 °F 95.6 °F 59.0 °F 29% 29.83 in 10.0 mi North 12.7 mph 23.0 mph N/A   Clear
3:53 PM 97.0 °F 95.7 °F 57.0 °F 26% 29.83 in 10.0 mi North - - N/A   Clear
4:53 PM 98.1 °F 95.7 °F 53.1 °F 22% 29.83 in - North 12.7 mph 19.6 mph N/A   Clear
5:53 PM 96.1 °F 94.1 °F 55.0 °F 25% 29.84 in 10.0 mi NNE 12.7 mph - N/A   Clear
6:53 PM 95.0 °F 93.4 °F 55.9 °F 27% 29.86 in 10.0 mi NE 13.8 mph - N/A   Clear
7:53 PM 89.1 °F 88.0 °F 57.9 °F 35% 29.88 in 10.0 mi North - - N/A   Clear
8:53 PM 82.0 °F 82.7 °F 61.0 °F 49% 29.91 in 10.0 mi North - - N/A   Clear
9:53 PM 79.0 °F - 59.0 °F 50% 29.93 in 10.0 mi NE 11.5 mph - N/A   Clear
10:53 PM 75.9 °F - 59.0 °F 56% 29.96 in 10.0 mi NNE 17.3 mph - N/A   Clear
11:53 PM 72.0 °F - 57.0 °F 59% 29.98 in 10.0 mi NNE 15.0 mph - N/A   Clear